Weather Roundup
Issued by NWS Springfield, MO

Home | Current Version | Previous Version | Text Only | Print | Product List | Glossary On
Versions: 1 2 3 4 5 6 7 8 9 10 11 12 13 14 15 16 17 18 19 20 21 22 23 24 25 26 27 28 29 30 31 32 33 34 35 36 37 38 39 40 41 42 43 44 45 46 47 48 49 50
000
NZUS99 KSGF 221907
HRRSGF

HOURLY WEATHER
NATIONAL WEATHER SERVICE SPRINGFIELD MO
200 PM CDT WED OCT 22 2014

......SGF CWA......

CITY           SKY/WX    TMP DP  RH WIND       PRES   REMARKS
SPRINGFIELD    SUNNY     68  48  48 SE6       30.19F
JOPLIN         PTSUNNY   71  57  61 S3        30.15F
WEST PLAINS    SUNNY     63  45  51 VRB6      30.23F
ROLLA          SUNNY     62  43  49 E6        30.22F
OSAGE BEACH    SUNNY     66  45  45 E6        30.22F
BRANSON        SUNNY     68  48  49 E6        30.22F

......SURROUNDING SGF CWA......

CITY           SKY/WX    TMP DP  RH WIND       PRES   REMARKS
CHANUTE        SUNNY     76  62  62 S13       30.12F
PARSONS        SUNNY     77  62  59 VRB7      30.13F
COFFEYVILLE    MOSUNNY   77  62  59 S8        30.11F
EMPORIA        MOSUNNY   77  56  48 S17G23    30.09F
GROVE OK       SUNNY     77  59  53 E3        30.15F
ROGERS AR      MOSUNNY   71  54  54 SE5       30.18F
SILOAM SPRINGS SUNNY     73  54  49 CALM      30.17F
HARRISON AR    SUNNY     67  50  54 SE6G16    30.21F
NEAR YELLVILLE SUNNY     66  45  45 SE6       30.21F

......KANSAS AND MISSOURI......

CITY           SKY/WX    TMP DP  RH WIND       PRES   REMARKS
KANSAS CTY INT MOSUNNY   70  55  59 SE15      30.13F
DOWNTOWN KC    SUNNY     71  52  50 SE7       30.13F
COLUMBIA       SUNNY     64  46  52 VRB6      30.23F
SEDALIA        SUNNY     70  49  47 SE9       30.20F
ST JOSEPH      SUNNY     71  53  52 SE10      30.12F
ST LOUIS       SUNNY     61  43  51 SE5       30.28F
SPIRIT OF STL  SUNNY     61  43  51 E6        30.26F
KIRKSVILLE     SUNNY     62  47  57 SE13      30.23F
WICHITA        PTSUNNY   78  55  44 S21G31    30.07F
TOPEKA         SUNNY     77  58  51 S9        30.10F
OLATHE         SUNNY     69  54  58 SE10      30.13F

......TENNESSEE......

CITY           SKY/WX    TMP DP  RH WIND       PRES   REMARKS
MEMPHIS        SUNNY     67  41  38 VRB6      30.20F
NASHVILLE      SUNNY     61  40  45 N5        30.22F

......ARKANSAS.......

CITY           SKY/WX    TMP DP  RH WIND       PRES   REMARKS
FAYETTEVILLE   MOSUNNY   72  53  51 S5        30.17F
FT SMITH       SUNNY     73  52  47 E9        30.16F
LITTLE ROCK    SUNNY     71  47  42 E10       30.19F

......OKLAHOMA.......

CITY           SKY/WX    TMP DP  RH WIND       PRES   REMARKS
TULSA          MOSUNNY   78  62  57 S8        30.10F
PONCA CITY     MOSUNNY   78  58  49 S8        30.10F
MCALESTER      MOSUNNY   76  57  51 VRB3      30.14F
OKLAHOMA CITY  PTSUNNY   79  58  48 S13       30.12F

......IOWA............

CITY           SKY/WX    TMP DP  RH WIND       PRES   REMARKS
DES MOINES     MOSUNNY   65  46  50 S18       30.16F
QUAD CITIES    SUNNY     59  40  49 SE13      30.28F

......ILLINOIS........

CITY           SKY/WX    TMP DP  RH WIND       PRES   REMARKS
QUINCY         SUNNY     59  40  49 SE3       30.26F
CHICAGO        MOSUNNY   55  38  52 E7        30.32F




USA.gov is the U.S. government's official web portal to all federal, state and local government web resources and services.